Hourly Data Report for September 26, 2018

TORONTO CITY
ONTARIO
Current Station Operator: ECCC - MSC

43°40'00.000" N
79°24'00.000" W
112.50 m
6158355
71508
XTO

Download Data

Hourly Data (September 2018)
Hourly Data Report for September 26, 2018
TIME
LST
Temp Definition
°C
Dew Point Definition
°C
Rel Hum Definition
%
Precip. Amount Definition
mm

Wind Dir Definition
10's deg

Wind Spd Definition
km/h
Visibility Definition
km
Stn Press Definition
kPa
Hmdx Definition


Wind Chill Definition


Weather Definition


00:00 20.9 19.2 90 1.6 LegendMM LegendMM   99.61 28   LegendNANA
01:00 20.9 19.3 91 1.7 LegendMM LegendMM   99.47 28   LegendNANA
02:00 21.9 19.4 86 0.0 LegendMM LegendMM   99.46 29   LegendNANA
03:00 21.3 19.0 87 0.0 LegendMM LegendMM   99.43 28   LegendNANA
04:00 21.4 19.3 88 0.0 LegendMM LegendMM   99.41 28   LegendNANA
05:00 21.1 19.1 88 0.0 LegendMM LegendMM   99.44 28   LegendNANA
06:00 21.2 19.2 89 0.0 LegendMM LegendMM   99.46 28   LegendNANA
07:00 21.6 18.9 85 0.0 LegendMM LegendMM   99.45 28   LegendNANA
08:00 22.1 17.6 76 0.0 LegendMM LegendMM   99.50 28   LegendNANA
09:00 22.3 16.3 69 0.0 LegendMM LegendMM   99.53 27   LegendNANA
10:00 22.0 14.6 63 0.0 LegendMM LegendMM   99.58 26   LegendNANA
11:00 20.0 12.1 60 0.0 LegendMM LegendMM   99.68     LegendNANA
12:00 19.1 10.3 56 0.0 LegendMM LegendMM   99.76     LegendNANA
13:00 20.1 10.3 54 0.0 LegendMM LegendMM   99.79     LegendNANA
14:00 19.0 7.3 46 0.0 LegendMM LegendMM   99.86     LegendNANA
15:00 19.1 5.9 42 0.0 LegendMM LegendMM   99.98     LegendNANA
16:00 18.3 4.9 41 0.0 LegendMM LegendMM   100.05     LegendNANA
17:00 18.4 5.7 43 0.0 LegendMM LegendMM   100.11     LegendNANA
18:00 17.6 6.1 47 0.0 LegendMM LegendMM   100.13     LegendNANA
19:00 15.9 6.8 55 0.0 LegendMM LegendMM   100.28     LegendNANA
20:00 14.9 7.1 59 0.0 LegendMM LegendMM   100.40     LegendNANA
21:00 14.0 7.4 65 0.0 LegendMM LegendMM   100.46     LegendNANA
22:00 13.1 7.5 69 0.0 LegendMM LegendMM   100.53     LegendNANA
23:00 12.3 7.8 74 0.0 LegendMM LegendMM   100.61     LegendNANA

Notes on Data Quality.

Legend

  • E = Estimated
  • M = Missing
  • NA = Not Available*
  • [empty] = Indicates an unobserved value
Date modified: